Meteo Giornale » Osservazioni meteo Stati Uniti (USA) » Luke-Phoenix

ore: 13:55 - Osservazioni Meteo Luke-Phoenix
Lat. 33° 32' N Lon. 112° 23' W Alt. 332 metri s.l.m.

sereno

37 °C

Sereno

Temp. 24 Ore

27 °C

37 °C

Sud-Ovest

9.3 Km/h

Dew point 18 °C

Umidità 32 %

Visibilità  10 Km

Il sole sorge alle ore 06:03

Il sole tramonta alle ore 18:55

Data e Ora Cielo e Fenomeni T °C DP °C Um. % Pres. hPa Vis. km Vento km/h
Oggi h: 13:55 sereno Sereno 37 18 32 1012 10 SO 9.3
Oggi h: 12:55 sereno Sereno 36 17 32 1012 10 E 16.7
Oggi h: 11:55 sereno Sereno 34 17 36 1014 10 N 5.5
Oggi h: 10:55 sereno Sereno 33 18 41 1014 10 N 0
Oggi h: 09:55 sereno Sereno 32 18 43 1015 10 SE 9.3
Oggi h: 08:55 sereno Sereno 30 18 48 1014 10 S/SE 7.4
Oggi h: 07:55 sereno Sereno 29 18 51 1014 14 N 0
Oggi h: 06:55 sereno Sereno 28 19 58 1014 10 N 7.4
Oggi h: 05:55 sereno Sereno 27 18 57 1013 10 N 0
Oggi h: 04:55 sereno Sereno 27 18 57 1013 10 N 0
Oggi h: 03:55 sereno Sereno 27 18 57 1012 10 N 5.5
Oggi h: 02:55 sereno Sereno 28 18 54 1012 10 N 0
Oggi h: 01:55 sereno Sereno 29 17 48 1013 10 N 5.5
Oggi h: 00:55 sereno Sereno 29 16 45 1013 10 N 5.5
Ieri h: 23:55 sereno Sereno 30 17 45 1012 10 N 0
Ieri h: 22:55 sereno Sereno 30 17 45 1012 10 N 0
Ieri h: 21:55 nuvoloso Nuvoloso 30 17 45 1012 10 SE 11.1
Ieri h: 20:55 nuvoloso Nuvoloso 31 16 40 1012 10 E/SE 11.1
Ieri h: 19:55 nuvoloso Nuvoloso 31 18 45 1011 10 S/SE 20.3
Ieri h: 18:55 molto_nuvoloso Molto Nuvoloso 31 17 43 1011 10 S/SE 11.1
Ieri h: 17:55 sereno Sereno 32 16 38 1011 10 SE 13
Ieri h: 16:55 sereno Sereno 33 16 36 1011 10 E 14.8
Ieri h: 15:55 sereno Sereno 33 16 36 1011 10 E 22.2